This is the latest recevied weather packets stored in our database for station/object KE2HEH. If no packets are shown the sender has not sent any weather packets the latest 10 day(s).
| Time | Temp. | Humidity | Pressure | Rain* | Wind** | Luminosity | Snow |
|---|---|---|---|---|---|---|---|
| 1778180876 | 13.89° C | 73% | 1009 hPa | 0 mm | - | 507 W/m² | - |
| 1778180575 | 13.89° C | 74% | 1008.9 hPa | 0 mm | - | 508 W/m² | - |
| 1778180273 | 14.44° C | 73% | 1008.8 hPa | 0 mm | - | 508 W/m² | - |
| 1778179969 | 14.44° C | 72% | 1009.1 hPa | 0 mm | - | 519 W/m² | - |
| 1778179667 | 14.44° C | 71% | 1009.3 hPa | 0 mm | - | 530 W/m² | - |
| 1778179365 | 14.44° C | 70% | 1009 hPa | 0 mm | - | 530 W/m² | - |
| 1778179061 | 14.44° C | 68% | 1009.1 hPa | 0 mm | - | 534 W/m² | - |
| 1778178758 | 14.44° C | 68% | 1009.1 hPa | 0 mm | - | 541 W/m² | - |
| 1778178456 | 14.44° C | 69% | 1009.4 hPa | 0 mm | - | 551 W/m² | - |
| 1778178150 | 14.44° C | 67% | 1009.5 hPa | 0 mm | - | 561 W/m² | - |
| 1778177848 | 13.89° C | 68% | 1009.5 hPa | 0 mm | - | 560 W/m² | - |
| 1778177544 | 13.33° C | 71% | 1009.5 hPa | 0 mm | - | 561 W/m² | - |
| 1778177240 | 13.89° C | 70% | 1009.7 hPa | 0 mm | - | 567 W/m² | - |
| 1778176938 | 13.89° C | 70% | 1009.8 hPa | 0 mm | - | 572 W/m² | - |
| 1778176633 | 13.89° C | 70% | 1009.7 hPa | 0 mm | - | 570 W/m² | - |
| 1778176330 | 13.89° C | 72% | 1009.9 hPa | 0 mm | - | 570 W/m² | - |
| 1778176028 | 13.89° C | 72% | 1009.9 hPa | 0 mm | - | 554 W/m² | - |
| 1778175725 | 13.33° C | 73% | 1009.9 hPa | 0 mm | - | 554 W/m² | - |
| 1778175423 | 13.33° C | 74% | 1009.9 hPa | 0 mm | - | 550 W/m² | - |
| 1778175119 | 13.33° C | 75% | 1010 hPa | 0 mm | - | 551 W/m² | - |
| 1778174816 | 13.89° C | 75% | 1009.9 hPa | 0 mm | - | 551 W/m² | - |
| 1778174513 | 13.89° C | 76% | 1010 hPa | 0 mm | - | 548 W/m² | - |
| 1778174213 | 13.89° C | 75% | 1010 hPa | 0 mm | - | 555 W/m² | - |
| 1778173910 | 13.89° C | 74% | 1009.8 hPa | 0 mm | - | 569 W/m² | - |
| 1778173607 | 13.33° C | 74% | 1010.3 hPa | 0 mm | - | 567 W/m² | - |
* Rain latest hour (hover to see other rain measurements)
** Current wind speed in m/s (hover to see current wind gust speed)